Regional Weather Roundup
Issued by NWS Grand Forks, ND

Home | Current Version | Previous Version | Graphics & Text | Print | Product List | Glossary On
Versions: 1 2 3 4 5 6 7 8 9 10 11 12 13 14 15 16 17 18 19 20 21 22 23 24 25 26 27 28 29 30 31 32 33 34 35 36 37 38 39 40 41 42 43 44 45 46 47 48 49 50
000
ASUS43 KFGF 290210
RWRFGF
PRAIRIE TO PINES  WEATHER ROUNDUP
NATIONAL WEATHER SERVICE EASTERN NORTH DAKOTA/GRAND FORKS ND
900 PM CDT THU MAY 28 2015

 **SATELLITE DATA USED TO AUGMENT SKY COVER AT AUTOMATED STATIONS**
 *****  WEATHER ACROSS EASTERN NORTH DAKOTA  *****

CITY           SKY/WX    TMP DP  RH WIND       PRES   REMARKS
GRAND FORKS    CLOUDY    67  61  81 SE3       29.78F
GRAND FRKS AFB MOCLDY    68  62  82 NE3       29.80R
GRAND FRKS NWS   N/A     64 N/A N/A MISG        N/A
DEVILS LAKE    CLOUDY    70  55  60 N17       29.85R
FARGO          CLOUDY    64  61  90 NW3       29.79R
WAHPETON ARPT  CLOUDY    63  57  82 NE9       29.81R
$$

 ***** WEATHER ACROSS CENTRAL AND WESTERN NORTH DAKOTA  *****

CITY           SKY/WX    TMP DP  RH WIND       PRES   REMARKS
BISMARCK       CLOUDY    71  54  54 N12       29.85F
MINOT          PTCLDY    65  54  67 NW9       29.91R
JAMESTOWN      CLOUDY    71  59  65 N16       29.79F
MINOT AFB      MOCLDY    66  64  91 N18G25    29.92R
GARRISON         N/A     67  56  67 N7        29.91R
WILLISTON      CLOUDY    60  48  64 N29G35    30.01R
DICKINSON      CLOUDY    65  54  67 N9        29.91R
HETTINGER      CLOUDY    59  56  89 S7        29.93R
$$

 *****  OTHER AIRPORT OBSERVATIONS IN OUR AREA  *****

CITY           SKY/WX    TMP DP  RH WIND       PRES   REMARKS
WALHALLA         N/A     63  63 100 MISG      29.86R
GRAFTON AIRPOR FAIR      66  66 100 N12       29.82R
VALLEY CITY AR FAIR      68  64  88 E3        29.81R
CANDO          MOCLDY    64  54  68 N14       29.88R
CAVALIER APRT  NOT AVBL
GWINNER        NOT AVBL
SHEYENNE NWR     N/A     63  62  95 SW7       29.95S
ROLLA          MOCLDY    61  59  94 N9        29.90R
 ***** THE ABOVE OBSERVATIONS ARE NON NWS ARE NOT QUALITY
       CONTROLLED AND MAY MIS-REPORT RAIN FOR SNOW...
$$

  *****  WEATHER ACROSS NORTHERN MINNESOTA  *****

CITY           SKY/WX    TMP DP  RH WIND       PRES   REMARKS
FLAG ISLAND    LGT RAIN  59  57  94 SE3       29.79F
WARROAD        CLOUDY    61  57  88 SE5       29.79F
ROSEAU         CLOUDY    63  57  82 CALM      29.78F
HALLOCK        RAIN      64  63  94 N8        29.80F
THF RVR FALLS  CLOUDY    66  63  88 CALM      29.81F
BAUDETTE       LGT RAIN  61  59  93 SE9       29.83F FOG
WASKISH        RAIN      61  57  88 CALM      29.85F
CROOKSTON      CLOUDY    66  63  88 N3        29.80F
STEPHEN NDAWN    N/A     64  63  94 N3          N/A
GREENBUSH NDAW   N/A     64  63  94 W2          N/A
$$
  *****  WEATHER ACROSS CENTRAL AND WEST MINNESOTA  *****

CITY           SKY/WX    TMP DP  RH WIND       PRES   REMARKS
FOSSTON        CLOUDY    61  59  94 CALM      29.84R
BEMIDJI        HVY RAIN  62  58  86 S6        29.82F
PARK RAPIDS    CLOUDY    70  58  65 NW10      29.85R
ELBOW LAKE     LGT RAIN  68  56  65 N20       29.83R
WADENA         CLOUDY    73  52  46 S12       29.82R
DETROIT LAKES  RAIN      63  61  94 S10       29.87R
MOORHEAD       CLOUDY    64  59  82 S10       29.81R
FERGUS FALLS   CLOUDY    64  57  77 N10       29.82S
MORRIS MN      MOCLDY    75  55  50 S12       29.81R
STAPLES        MOCLDY    73  48  40 S9        29.83R
$$
  *****  WEATHER ELSEWHERE ACROSS MINNESOTA  *****

CITY           SKY/WX    TMP DP  RH WIND       PRES   REMARKS
DULUTH         CLOUDY    45  42  89 E10       29.93S FOG
INTRNTL FALLS  LGT RAIN  59  57  93 N12       29.86R
ELY            NOT AVBL
CLOQUET        MOCLDY    45  43  93 E6        29.93S
WHEATON        CLOUDY    75  55  50 S9G20     29.80R
BRAINERD       MOCLDY    71  53  52 S8        29.86R
HIBBING        CLOUDY    62  50  64 SE6       29.89R
ALEXANDRIA     PTCLDY    75  49  39 S13       29.84R
SAINT CLOUD    PTCLDY    73  53  49 S8        29.87R
MINNEAPOLIS    CLOUDY    77  51  40 SE10      29.90S
$$

  *****  WEATHER ACROSS SOUTH DAKOTA  *****

CITY           SKY/WX    TMP DP  RH WIND       PRES   REMARKS
SIOUX FALLS    CLOUDY    69  58  67 S15       29.88S
BROOKINGS      MOCLDY    72  54  53 S15       29.88R
WATERTOWN      MOCLDY    72  58  61 S14G22    29.83R
HURON            N/A    N/A N/A N/A MISG      29.79F
SISSETON         N/A     77  59  53 SW20      29.77R
ABERDEEN       TSTM      66  60  81 NW13      29.80R
MITCHELL       MOCLDY    74  63  68 S14       29.83R
PIERRE         CLOUDY    63  59  87 E7        29.85R
MOBRIDGE       LGT RAIN  65  62  90 NW3       29.83S FOG
RAPID CITY     CLOUDY    59  53  80 N20       29.95F
$$

  *****  SOME WEATHER IN NEARBY STATES *****

CITY           SKY/WX    TMP DP  RH WIND       PRES   REMARKS
GLASGOW MT     CLOUDY    55  47  74 N14G25    30.13R
GREAT FALLS MT CLOUDY    48  46  93 N13       30.27R
CHEYENNE WY    MOCLDY    61  36  39 NW14G22   30.08R
SCOTTSBLUFF NE CLOUDY    59  49  69 NE15G25   29.98R
OMAHA NE       MOCLDY    69  63  81 S9        29.93R
DES MOINES IA  CLOUDY    69  64  84 SE12      29.97S
DAVENPORT IA   CLOUDY    72  56  57 S5        30.03F
CHICAGO IL     MOCLDY    71  53  52 E8        30.08F
EAU CLAIRE WI  PTCLDY    74  53  48 S12       29.95F
LA CROSSE WI   PTCLDY    75  54  47 SE9       29.96F
$$

  *****  SOME NATIONAL WEATHER *****

CITY           SKY/WX    TMP DP  RH WIND       PRES   REMARKS
LA GUARDIA NY  MOCLDY    79  54  41 N10       30.19R
RALEIGH NC     LGT RAIN  77  67  71 SW3       30.20S
ATLANTA GA     LGT RAIN  70  65  84 E3        30.20R
NEW ORLEANS LA MOCLDY    81  72  74 SE8       30.06R
OKLAHOMA CITY  CLOUDY    73  70  90 S16G23    29.89F
ALBUQUERQUE NM PTCLDY    81  13   7 W14       29.98R
SALT LAKE CITY PTCLDY    69  43  38 N8        30.09S
LOS ANGELES CA MOSUNNY   62  56  80 W12       29.92F
BOISE ID       SUNNY     76  41  28 W10       30.02S
SEATTLE WA     MOSUNNY   80  52  37 N8        30.00S
$$

*** WEATHER ACROSS MANITOBA...SASKATCHEWAN AND ONTARIO ***
                ***ONTARIO***

CITY           SKY/WX    TMP DP  RH WIND       PRES   REMARKS
GERALDTON      CLOUDY    52  50  93 SE3       29.97F
THUNDER BAY    CLOUDY    48  46  93 NE7       29.97F FOG
SIOUX LOOKOUT  LGT RAIN  55  54  94 S6        29.87R
TORONTO        PTCLDY    68  54  60 S5        30.26R
BIG TROUT LK   LGT RAIN  46  37  71 SE13G22   30.05S
PICKLE LAKE    LGT RAIN  45  43  93 E9        29.91F FOG
DRYDEN         HVY RAIN  57  55  94 S9        29.87R FOG
KENORA         LGT RAIN  57  57 100 E6        29.84F
$$
                *** MANITOBA***

CITY           SKY/WX    TMP DP  RH WIND       PRES   REMARKS
BRANDON        CLOUDY    54  45  71 N26G32    29.96R
DAUPHIN        CLOUDY    46  43  87 N18G24    30.06R
ISLAND LAKE    LGT RAIN  41  41 100 NE14G22   29.91S
PILOT MOUND      N/A     63  55  77 N10         N/A
THE PAS        MOCLDY    43  37  81 N15G21    30.20R
THOMPSON       LGT SNOW  32  28  86 N16G22    30.22R WCI  21
WINNIPEG       CLOUDY    57  55  94 N9G18     29.88R
LYNN LAKE      LGT RAIN  32  27  80 N10G18    30.33R WCI  24
CHURCHILL      CLOUDY    28  23  80 E12       30.40S WCI  18
GILLAM         LGT SNOW  30  28  93 NE16G28   30.23R VSB 3/4 WCI  19
$$
                ***SASKATCHEWAN***

CITY           SKY/WX    TMP DP  RH WIND       PRES   REMARKS
ESTEVAN        CLOUDY    50  45  81 N23G33    30.05R
KINDERSLEY     CLEAR     52  28  40 N13       30.26R
LLOYDMINSTER   SUNNY     48  27  43 N8        30.30R
PRINCE ALBERT  PTCLDY    46  28  49 N16G24    30.28R
REGINA         NOT AVBL
YORKTON        CLOUDY    45  37  76 N17G31    30.14R
N. BATTLEFORD  CLEAR     50  28  43 NE12G17   30.30R
LA RONGE       MOCLDY    43  27  52 N12       30.33R
SASKATOON      PTCLDY    50  28  43 N13G20    30.26R
SWIFT CURRENT  CLEAR     52  28  40 NE15      30.21R
$$
NOTE: THESE ARE AUTOMATED STATIONS WITH LIMITED QUALITY CONTROL
      "FAIR" INDICATES FEW OR NO CLOUDS BELOW 12,000 FEET WITH NO
      SIGNIFICANT WEATHER AND/OR OBSTRUCTIONS TO VISIBILITY.
      SKY/WX - SKY CONDITION AND SIGNIFICANT WEATHER.
      TMP - AIR TEMPERATURE.    DP   - DEWPOINT TEMPERATURE.
      RH  - RELATIVE HUMIDITY.  PRES - PRESSURE.
      HX  - HEAT INDEX.         WCI  - WIND CHILL INDEX.
$


USA.gov is the U.S. government's official web portal to all federal, state and local government web resources and services.